Carutapera, Brazil
Current Conditions -  °F | °C
As of 6:00 AM on Wednesday 26 Nov 2014 (Local Time) from SBSL Reporting Station
Few Clouds Few Clouds  
Wind Chill: 81°   Ceiling: Unl
Heat Index: 84°   Visibility: 6mi
Dew Point: 70°   Wind: 12mph
Humidity: 70%   Direction: 70°ENE
Pressure: 29.8"   Gusts: NA
Location:  1.2°S, 46.02°W
Report Text: SBSL 260900Z 07010KT 9999 FEW017 27/21 Q1009
Loading
Personal Weather Stations






























Interactive Weather Map New forecast layout! Learn more

10-Day Weather Forecast

Advertisements
Track Severe Weather on mobile